Tracking 21496 objects as of 1-Oct-2020
HD Live streaming from Space Station
objects crossing your sky now

COSMOS 2251 DEB

Track COSMOS 2251 DEB now!
10-day predictions


NORAD ID: 36058
Int'l Code: 1993-036AXV
Perigee: 699.1 km
Apogee: 778.1 km
Inclination: 74.0 °
Period: 99.4 minutes
Semi major axis: 7109 km
RCS: 0.0068 m2 (small)
Launch date: June 16, 1993
Source: Commonwealth of Independent States (former USSR) (CIS)
Launch site: PLESETSK MISSILE AND SPACE COMPLEX (PKMTR)

Note: This is SATELLITE DEBRIS
aabbcc
Your satellite tracking list
Your tracking list is empty




NASA's NSSDC Master Catalog

Two Line Element Set (TLE):
1 36058U 93036AXV 20273.95973928 +.00000337 +00000-0 +96210-4 0  9994
2 36058 074.0291 012.4907 0055604 254.3142 105.1879 14.48219862385452
Source of the keplerian elements: AFSPC